Terminal Aerodrome Forecast
Issued by NWS Pueblo, CO

Home | Current Version | Previous Version | Text Only | Print | Product List | Glossary On
Versions: 1 2 3 4 5 6 7 8 9 10 11 12 13 14 15 16 17 18 19 20 21 22 23 24 25 26 27 28
808
FTUS45 KPUB 301723
TAFCOS
TAF
KCOS 301723Z 3018/0118 02012KT P6SM BKN120 BKN250
     FM302200 08012KT P6SM VCTS SCT080CB BKN140
      TEMPO 3023/0103 36015G25KT 5SM -TSRA BKN060CB OVC100
     FM010300 35010KT P6SM VCSH SCT060 BKN100
     FM010600 34008KT P6SM SCT060 BKN150=

USA.gov is the U.S. government's official web portal to all federal, state and local government web resources and services.